Regional Weather Roundup
Issued by NWS Jackson, KY

Home | Current Version | Previous Version | Text Only | Print | Product List | Glossary On
Versions: 1 2 3 4 5 6 7 8 9 10 11 12 13 14 15 16 17 18 19 20 21 22 23 24 25 26 27
000
ASUS43 KJKL 150610
RWRJKL

EAST KENTUCKY HOURLY WEATHER ROUNDUP
NATIONAL WEATHER SERVICE JACKSON KY
100 AM EST FRI DEC 15 2017

NOTE: "FAIR" INDICATES FEW OR NO CLOUDS BELOW 12,000 FEET WITH
NO SIGNIFICANT WEATHER AND/OR OBSTRUCTIONS TO VISIBILITY.

* THESE REPORTS ARE NOT UNDER NWS QUALITY CONTROL AND MAY NOT
  REPORT WEATHER SUCH AS PRECIPITATION AND FOG.

KYZ079-080-083-085-087-088-110-112-115-119-120-150700
...EASTERN KENTUCKY...

CITY           SKY/WX    TMP DP  RH WIND       PRES   REMARKS
JACKSON        CLOUDY    30  21  69 CALM      30.02F
6HR MIN TEMP:  29; 6HR MAX TEMP:  31;

LONDON         CLOUDY    32  21  64 CALM      30.02F
6HR MIN TEMP:  32; 6HR MAX TEMP:  34;

SOMERSET*      CLOUDY    32  21  64 CALM      30.06F
MONTICELLO*    CLOUDY    32  25  75 W6        30.06F WCI  26
6HR MIN TEMP:  32; 6HR MAX TEMP:  34;

WILLIAMSBURG*  CLOUDY    32  25  74 CALM      30.02F
MIDDLESBORO*   CLOUDY    27  24  89 CALM      30.04R
6HR MIN TEMP:  25; 6HR MAX TEMP:  33;

HARLAN APT*    CLOUDY    32  25  74 CALM      30.00F
PIKE CO APT*   CLOUDY    29  21  71 CALM      30.01S
BIG SANDY APT* CLOUDY    29  22  73 CALM      30.03S
6HR MIN TEMP:  29; 6HR MAX TEMP:  32;

MOREHEAD APT*  CLOUDY    25  18  74 CALM      30.07S
$$

KYZ035-036-041-042-044-050-067-078-099-150700
...CENTRAL KENTUCKY...

CITY           SKY/WX    TMP DP  RH WIND       PRES   REMARKS
MT STERLING*   CLOUDY    23  19  86 CALM      30.06F
FLEMING/MASON* PTCLDY    22  16  79 NE3       30.07F
DANVILLE*      CLOUDY    27  21  80 CALM      30.06F
LEXINGTON      CLOUDY    26  17  68 NE5       30.06F WCI  20
6HR MIN TEMP:  23; 6HR MAX TEMP:  31;

FRANKFORT      CLOUDY    27  16  63 CALM      30.06F
6HR MIN TEMP:  27; 6HR MAX TEMP:  31;

LOUISVILLE     CLOUDY    28  18  66 E3        30.09F
6HR MIN TEMP:  27; 6HR MAX TEMP:  31;

LEBANON*         N/A     28  19  69 CALM      30.07S
GLASGOW*       CLOUDY    31  21  66 NW3       30.07F
BOWLING GREEN  CLOUDY    32  22  66 NW3       30.09F
6HR MIN TEMP:  32; 6HR MAX TEMP:  36;

$$

KYZ091>093-OHZ055-061-077-WVZ005-015-034-035-042-150700
...SOUTHERN OHIO/WEST VIRGINIA...

CITY           SKY/WX    TMP DP  RH WIND       PRES   REMARKS
COVINGTON      CLOUDY    24  16  71 N5        30.05F WCI  18
COLUMBUS       CLOUDY    20  15  81 N3        30.06F
DAYTON         CLOUDY    20  15  81 CALM      30.05F
WILMINGTON     CLOUDY    20  18  92 CALM      30.05S
HUNTINGTON     CLOUDY    27  17  66 CALM      30.06S
CHARLESTON     CLOUDY    28  18  66 N3        30.03F
PINEVILLE*     CLOUDY    31  25  79 MISG      30.03S
BECKLEY        CLOUDY    27  20  75 CALM      29.94S
BLUEFIELD      CLOUDY    23  19  85 CALM      29.93F
LOGAN CO APT*  CLOUDY    30  21  69 CALM      29.99S
$$

VAZ002-007-008-TNZ017-027-036-066-071-150700
...SOUTHWEST VIRGINIA/EAST TENNESSEE...

CITY           SKY/WX    TMP DP  RH WIND       PRES   REMARKS
WISE*          CLOUDY    30  25  80 N3        29.95F
JONESVILLE*    CLOUDY    28  25  86 CALM      30.03S
ABINGDON*      PTCLDY    26  24  89 CALM      29.96S
BRISTOL        MOCLDY    28  24  85 CALM      29.99S
MORRISTOWN*    CLOUDY    28  25  86 CALM      30.00S
SEVIERVILLE*   MOCLDY    27  25  93 CALM      30.02S
KNOXVILLE      CLEAR     31  28  89 CALM      30.01F
LAFOLLETTE*    CLOUDY    28  25  86 CALM      30.05F
OAK RIDGE      CLOUDY    31  27  85 CALM      30.03F
CROSSVILLE     CLEAR     27  22  81 W3        29.99F
NASHVILLE      CLOUDY    34  21  59 NW8       30.10F WCI  27
$$

...KEY TO REMARKS...
VSB - VISIBILITY IN MILES
WCI - WIND CHILL INDEX
HX  - HEAT INDEX

$$




USA.gov is the U.S. government's official web portal to all federal, state and local government web resources and services.